FLOCK 2K-44 (42873 NORAD) Tracking and Keplerian Element Data

This shows tracking and keplerian element data for the satellite.

Feedback or suggestion? Click here.




ElementValue
Catalog42873
NameFLOCK 2K-44
Epoch Orbit23163
Epoch Day241.10286199
Epoch Year2021
RAAN90.5016
Inclination96.8438
Eccentricity0.000965
Argument of Perigee142.4147
Mean Anonmoly217.778
Mean Motion15.47093457
Decay Rate0.00016768
L11 42873U 17042BA 21241.10286199 .00016768 00000-0 33190-3 0 9991
L22 42873 96.8438 90.5016 0009650 142.4147 217.7780 15.47093457231630



Live tracking and technical data element details for FLOCK 2K-44 (NORAD 42873). FLOCK 2K-44 can be tracked NOW for your location showing map with azimuth and elevation plus other details from your city location.







IsCatalogInMostPopularTable: catalog: 42873, numindb: 582
Update: records affected: 1



GetName: 42873 FLOCK 2K-44

Hit Count: updated at: Fri, 16 May 2025 10:56:13 GMT